Change the Weather History Date:

Tuesday, May 20, 2014

  Actual Average (KMSN) Record (KMSN)
Temperature  
Mean Temperature 73 °F 58 °F  
Max Temperature 86 °F 70 °F 91 °F (1934)
Min Temperature 61 °F 47 °F 32 °F (1954)
Degree Days  
Heating Degree Days 0 8  
Month to date heating degree days 200  
Since 1 July heating degree days 7207  
Cooling Degree Days 8 1  
Month to date cooling degree days 10  
Year to date cooling degree days 14  
Growing Degree Days 23 (Base 50)    
Moisture  
Dew Point 57 °F    
Average Humidity 60    
Maximum Humidity 90    
Minimum Humidity 34    
Precipitation  
Precipitation 0.07 in 0.11 in 1.82 in (1913)
Month to date precipitation 2.19  
Year to date precipitation 10.47  
Snow  
Snow 0.00 in 0.00 in 0.00 in ()
Month to date snowfall 0.2  
Since 1 July snowfall 50.9  
Snow Depth -    
Sea Level Pressure  
Sea Level Pressure 29.83 in    
Wind  
Wind Speed 7 mph (SSW)    
Max Wind Speed 13 mph    
Max Gust Speed 21 mph    
Visibility 10 miles    
Events      
T = Trace of Precipitation, MM = Missing Value Source: NWS Daily Summary

Daily Weather History Graph

Daily Weather History Graph

Search for Another Location

Airport or City:

Trip Planner

Search our weather history database for the weather conditions in past years. The results will help you decide how hot, cold, wet, or windy it might be!

Date:

Astronomy

May. 20, 2014 Rise Set
Actual Time 5:29 AM CDT 8:20 PM CDT
Civil Twilight 4:56 AM CDT 8:53 PM CDT
Nautical Twilight 4:14 AM CDT 9:35 PM CDT
Astronomical Twilight 3:25 AM CDT 10:25 PM CDT
Moon 12:46 AM CDT (5/20) 11:41 AM CDT (5/20)
Length of Visible Light 15h 57m
Length of Day
14h 50m
Waning Gibbous, 60% of the Moon is Illuminated
May 20
Waning Gibbous
May 21
Last Quarter
May 28
New
Jun 5
First Quarter
Jun 12
Full

Hourly Weather History & Observations

Time (CDT) Temp. Heat Index Dew Point Humidity Pressure Visibility Wind Dir Wind Speed Gust Speed Precip Events Conditions
12:10 AM 63.3 °F - 44.1 °F 49% 29.88 in 10.0 mi SSE 12.7 mph 20.7 mph N/A   Overcast
12:30 AM 63.5 °F - 44.6 °F 50% 29.88 in 10.0 mi South 10.4 mph - N/A   Overcast
12:50 AM 62.2 °F - 46.6 °F 57% 29.86 in 10.0 mi SSE 10.4 mph - N/A   Overcast
1:10 AM 62.6 °F - 47.3 °F 57% 29.85 in 10.0 mi SSE 8.1 mph - N/A   Overcast
1:30 AM 63.1 °F - 48.0 °F 58% 29.84 in 10.0 mi SSE 11.5 mph 16.1 mph N/A   Overcast
1:50 AM 63.3 °F - 48.7 °F 59% 29.84 in 10.0 mi SSE 9.2 mph - N/A   Overcast
2:15 AM 63.5 °F - 49.5 °F 60% 29.83 in 10.0 mi South 10.4 mph - N/A   Overcast
2:30 AM 63.5 °F - 49.8 °F 61% 29.83 in 10.0 mi South 8.1 mph - N/A   Overcast
2:50 AM 63.0 °F - 50.0 °F 63% 29.83 in 10.0 mi South 8.1 mph - N/A   Overcast
3:10 AM 62.8 °F - 50.7 °F 65% 29.83 in 10.0 mi South 8.1 mph - N/A   Overcast
3:30 AM 62.6 °F - 51.4 °F 67% 29.82 in 10.0 mi South 6.9 mph - N/A   Overcast
3:50 AM 62.2 °F - 52.2 °F 70% 29.82 in 10.0 mi South 6.9 mph - N/A   Overcast
4:10 AM 62.2 °F - 53.1 °F 72% 29.81 in 10.0 mi South 8.1 mph - N/A   Overcast
4:30 AM 61.3 °F - 53.6 °F 76% 29.81 in 10.0 mi SSW 8.1 mph - N/A   Scattered Clouds
4:50 AM 61.3 °F - 54.0 °F 77% 29.81 in 10.0 mi SSW 5.8 mph - N/A   Clear
5:10 AM 61.3 °F - 54.5 °F 78% 29.82 in 10.0 mi SSW 5.8 mph - N/A   Clear
5:30 AM 61.3 °F - 55.0 °F 80% 29.81 in 10.0 mi SSW 6.9 mph - N/A   Clear
5:50 AM 61.7 °F - 55.4 °F 80% 29.82 in 10.0 mi SSW 8.1 mph - N/A   Clear
6:10 AM 61.5 °F - 55.6 °F 81% 29.83 in 10.0 mi SW 5.8 mph - N/A   Clear
6:30 AM 61.9 °F - 55.9 °F 81% 29.84 in 10.0 mi SSW 3.5 mph - N/A   Clear
6:50 AM 62.6 °F - 56.8 °F 81% 29.84 in 10.0 mi Calm Calm - N/A   Clear
7:10 AM 63.7 °F - 57.4 °F 80% 29.85 in 10.0 mi Calm Calm - N/A   Mostly Cloudy
7:30 AM 65.3 °F - 57.9 °F 77% 29.84 in 10.0 mi SSW 6.9 mph - N/A   Overcast
7:50 AM 66.0 °F - 58.1 °F 76% 29.84 in 10.0 mi SW 5.8 mph - N/A   Mostly Cloudy
8:10 AM 69.1 °F - 58.8 °F 70% 29.83 in 10.0 mi WSW 9.2 mph - N/A   Scattered Clouds
8:30 AM 69.4 °F - 58.5 °F 68% 29.83 in 10.0 mi WSW 10.4 mph - N/A   Scattered Clouds
8:50 AM 69.1 °F - 58.6 °F 69% 29.84 in 10.0 mi SW 9.2 mph - N/A   Clear
9:10 AM 71.4 °F - 59.4 °F 66% 29.83 in 10.0 mi WSW 5.8 mph - N/A   Clear
9:30 AM 73.4 °F - 59.4 °F 61% 29.83 in 10.0 mi West 5.8 mph - N/A   Clear
9:50 AM 74.5 °F - 60.1 °F 61% 29.83 in 10.0 mi WSW 8.1 mph - N/A   Clear
10:10 AM 75.7 °F - 59.7 °F 57% 29.83 in 10.0 mi SW 6.9 mph - N/A   Clear
10:30 AM 76.8 °F - 60.6 °F 57% 29.83 in 10.0 mi WNW 5.8 mph - N/A   Clear
10:50 AM 77.4 °F - 60.3 °F 55% 29.83 in 10.0 mi NW 3.5 mph - N/A   Clear
11:10 AM 78.6 °F - 60.6 °F 54% 29.83 in 10.0 mi WNW 3.5 mph - N/A   Clear
11:35 AM 79.2 °F - 59.7 °F 51% 29.84 in 10.0 mi Calm Calm - N/A   Clear
11:50 AM 79.9 °F - 59.9 °F 50% 29.84 in 10.0 mi West 4.6 mph - N/A   Clear
12:10 PM 80.4 °F 81.3 °F 61.0 °F 51% 29.84 in 10.0 mi WNW 8.1 mph - N/A   Scattered Clouds
12:30 PM 81.0 °F 81.7 °F 60.8 °F 50% 29.84 in 10.0 mi WNW 6.9 mph - N/A   Scattered Clouds
12:50 PM 80.8 °F 81.6 °F 61.0 °F 51% 29.84 in 10.0 mi Calm Calm - N/A   Scattered Clouds
1:10 PM 81.3 °F 82.5 °F 62.6 °F 53% 29.84 in 10.0 mi South 4.6 mph - N/A   Scattered Clouds
1:35 PM - - - N/A% - - North - - N/A   Unknown
1:55 PM 82.9 °F 84.0 °F 63.0 °F 51% 29.84 in 10.0 mi South 3.5 mph - 0.06 in   Clear
2:15 PM 82.6 °F 82.6 °F 59.2 °F 45% 29.83 in 10.0 mi West 5.8 mph - N/A   Clear
2:35 PM 84.0 °F 84.2 °F 60.3 °F 45% 29.83 in 10.0 mi Calm Calm - N/A   Scattered Clouds
2:55 PM 84.7 °F 84.4 °F 59.5 °F 42% 29.83 in 10.0 mi Calm Calm - N/A   Mostly Cloudy
3:15 PM 85.6 °F 84.7 °F 57.6 °F 38% 29.83 in 10.0 mi West 5.8 mph - N/A   Scattered Clouds
3:35 PM 85.3 °F 83.9 °F 55.8 °F 36% 29.83 in 10.0 mi West 5.8 mph - N/A   Scattered Clouds
3:55 PM 85.8 °F 84.7 °F 56.8 °F 37% 29.83 in 10.0 mi NNE 3.5 mph - N/A   Scattered Clouds
4:15 PM 85.3 °F 83.8 °F 54.9 °F 35% 29.83 in 10.0 mi Calm Calm - N/A   Clear
4:35 PM 84.4 °F 83.7 °F 57.9 °F 40% 29.83 in 10.0 mi ENE 4.6 mph - N/A   Clear
4:55 PM 83.7 °F - 52.5 °F 34% 29.83 in 10.0 mi East 3.5 mph - N/A   Scattered Clouds
5:15 PM 85.1 °F 83.6 °F 54.5 °F 35% 29.82 in 10.0 mi Calm Calm - N/A   Mostly Cloudy
5:35 PM 84.7 °F 83.1 °F 53.1 °F 34% 29.83 in 7.0 mi Calm Calm - N/A   Overcast
5:55 PM 85.3 °F 83.8 °F 54.5 °F 35% 29.83 in 10.0 mi NE 3.5 mph - N/A   Mostly Cloudy
6:15 PM 84.0 °F 83.2 °F 56.8 °F 39% 29.83 in 10.0 mi Calm Calm - N/A   Scattered Clouds
6:35 PM 83.5 °F 82.8 °F 56.8 °F 40% 29.82 in 10.0 mi ENE 3.5 mph - N/A   Clear
6:55 PM 81.3 °F 81.7 °F 59.2 °F 47% 29.82 in 10.0 mi ESE 6.9 mph - N/A   Clear
7:15 PM 79.9 °F - 56.5 °F 45% 29.81 in 10.0 mi SE 5.8 mph - N/A   Scattered Clouds
7:55 PM 72.7 °F - 60.3 °F 65% 29.81 in 10.0 mi ENE 3.5 mph - N/A   Scattered Clouds
8:15 PM 73.8 °F - 59.7 °F 61% 29.81 in 10.0 mi Calm Calm - N/A   Scattered Clouds
8:55 PM 75.4 °F - 58.8 °F 56% 29.81 in 10.0 mi Calm Calm - N/A   Mostly Cloudy
9:15 PM 68.5 °F - 60.6 °F 76% 29.82 in 10.0 mi Calm Calm - N/A   Scattered Clouds
9:35 PM 70.3 °F - 61.0 °F 72% 29.84 in 10.0 mi Calm Calm - N/A   Mostly Cloudy
9:55 PM 74.1 °F - 61.9 °F 65% 29.87 in 10.0 mi North 6.9 mph - N/A   Overcast
10:15 PM 71.8 °F - 63.5 °F 75% 29.87 in 10.0 mi Calm Calm - N/A   Overcast
10:35 PM 70.5 °F - 64.0 °F 80% 29.85 in 10.0 mi SE 3.5 mph - 0.01 in   Mostly Cloudy
10:55 PM 69.8 °F - 63.7 °F 81% 29.84 in 10.0 mi Calm Calm - 0.01 in   Scattered Clouds
11:15 PM 67.1 °F - 63.7 °F 89% 29.85 in 7.0 mi North 4.6 mph - N/A   Clear
11:35 PM 67.1 °F - 63.3 °F 88% 29.85 in 7.0 mi North 3.5 mph - N/A   Mostly Cloudy
11:55 PM 66.2 °F - 63.1 °F 90% 29.85 in 7.0 mi North 3.5 mph - N/A   Mostly Cloudy